Wind_Speed
30 27 25 22 18 16 20 16 7 12 22 13 9 11 13 15 14 10 9 7 7 8 7 7 4 1 8 8 6 6 5 4 8 2 3 4 5 5 2 2 3 3 2 7
30 27 26 25 23 21 18 15 10 11 25 10 10 13 13 14 13 17 12 8 7 5 7 8 5 2 4 5 5 6 4 4 6 4 2 1 4 2 5 6 3 9 5 5
32 31 29 27 26 24 20 12 3 7 20 27 19 17 13 13 6 11 11 5 4 4 6 3 3 3 4 5 6 4 3 7 8 8 6 4 8 10 11 10 4 9 12 19
34 32 29 28 27 29 22 15 7 12 6 17 18 20 13 17 11 7 10 10 12 12 5 10 10 10 7 6 1 2 4 8 11 12 13 12 13 15 15 16 16 16 17 19
34 33 32 31 29 31 23 11 4 6 9 22 22 14 20 21 18 13 8 12 17 12 11 11 7 10 11 6 5 4 3 6 6 3 13 15 15 19 18 18 18 18 17 15
36 35 33 32 31 35 23 20 14 11 8 18 15 17 17 22 22 18 17 18 10 10 15 7 7 3 2 2 5 6 4 4 4 10 10 6 11 15 16 14 12 10 12 13
36 36 36 36 36 38 16 20 12 10 5 11 15 21 23 15 25 15 15 15 14 10 5 4 2 5 10 14 14 14 9 6 4 4 8 5 11 2 4 6 7 9 8 13
36 36 37 37 37 36 27 16 19 15 7 13 15 18 22 22 13 22 13 8 6 10 8 3 5 6 6 15 16 14 14 6 2 4 9 11 15 8 7 5 9 4 2 8
34 36 36 37 36 36 37 12 17 10 13 10 15 16 17 13 14 11 16 7 7 8 5 4 5 7 9 6 5 4 3 4 5 5 6 5 2 5 4 4 10 9 7 8
37 36 36 36 37 37 35 28 23 12 8 10 13 11 13 17 18 12 18 10 8 11 6 6 7 8 7 6 8 6 4 3 10 10 5 8 11 8 2 3 2 2 5 6
37 36 37 38 37 35 35 30 24 20 13 8 10 11 7 14 12 7 8 11 7 10 7 6 3 5 7 13 15 12 10 7 5 7 5 8 6 6 5 4 1 5 7 5
38 36 37 37 36 34 34 23 31 27 9 5 14 14 12 7 0 5 12 9 13 12 6 6 4 6 5 11 11 15 11 11 6 7 5 5 5 2 3 4 8 8 6 8
39 39 37 37 36 35 34 29 23 25 16 13 12 17 17 21 16 8 7 9 8 6 7 6 5 8 6 9 11 15 9 11 7 8 10 14 10 9 10 9 6 3 7 11
39 39 39 37 35 35 36 36 28 28 11 5 8 28 20 25 23 18 13 11 10 7 6 8 4 5 5 7 5 8 3 5 10 12 15 15 20 19 9 5 5 6 8 10
40 38 36 35 33 32 33 35 33 30 26 6 4 10 25 19 18 14 11 8 10 9 6 4 3 6 3 3 3 7 13 11 9 9 12 12 14 13 4 9 10 10 10 9
39 37 35 34 33 33 31 21 34 32 33 9 1 4 11 24 17 9 7 6 7 7 4 5 4 3 6 4 5 9 20 25 28 22 21 23 12 6 9 8 11 11 11 13
39 36 35 33 33 36 40 11 18 35 28 9 1 3 5 13 12 9 8 8 8 8 6 6 9 7 7 6 14 20 19 20 28 25 23 14 14 11 11 12 13 12 13 14
38 36 35 33 33 33 42 17 12 23 27 10 3 2 4 14 8 9 8 6 8 9 7 6 11 16 10 7 13 21 27 36 38 39 33 29 22 11 14 15 16 17 18 17
38 35 33 30 29 30 38 35 14 26 16 9 6 7 5 15 5 6 6 7 5 7 6 14 10 10 10 9 17 22 28 35 34 29 28 29 23 18 18 19 19 20 19 18
40 36 25 14 32 22 23 25 19 17 13 9 7 16 6 15 8 5 7 5 4 4 6 9 10 17 34 35 31 32 35 30 29 28 29 24 21 22 22 23 21 20 20 19
42 20 10 18 33 24 18 10 10 6 7 11 22 15 7 14 7 4 10 4 5 3 5 5 5 7 13 29 45 48 43 40 36 32 30 22 22 22 23 24 22 21 21 20
40 26 29 30 15 9 7 5 7 5 7 12 23 26 17 13 12 7 8 5 5 7 7 4 5 6 19 28 26 25 25 26 28 31 29 23 22 21 23 23 24 23 21 20
33 21 14 9 11 9 9 14 5 9 7 15 21 14 14 8 13 5 6 8 7 7 4 5 7 16 21 19 18 17 15 16 21 25 27 23 21 20 25 25 24 24 22 20
10 10 9 6 7 10 7 16 16 19 15 21 30 19 8 10 11 5 6 6 5 6 7 16 8 21 25 24 24 15 14 11 13 17 20 21 22 25 25 26 27 27 26 24
7 7 10 7 12 25 22 26 33 27 29 29 25 11 7 7 4 5 6 6 7 8 16 12 16 18 18 13 12 12 11 12 15 18 21 26 29 30 32 31 28 27 23 21
5 6 7 8 11 13 19 23 28 29 31 33 27 4 6 4 5 7 7 5 8 12 10 16 14 13 10 8 9 9 10 13 16 19 22 29 33 32 32 28 25 23 23 20
7 5 13 22 14 19 20 26 29 32 35 10 8 10 7 6 6 10 7 13 14 13 15 11 13 10 8 6 8 11 14 16 18 20 22 25 28 26 29 27 24 25 22 18
Wind_Direction
191 192 194 189 190 175 166 175 209 185 176 184 202 224 195 221 213 204 247 274 274 197 189 283 280 39 44 5 333 293 56 307 263 119 52 356 312 313 281 294 288 265 318 273
194 197 196 196 193 185 171 191 193 170 184 204 216 220 218 240 237 197 192 214 252 233 182 199 251 213 58 25 22 9 358 266 254 253 211 193 227 219 306 295 358 266 272 276
191 197 197 195 195 184 186 197 154 172 201 224 208 208 212 206 213 265 209 214 208 206 187 255 175 239 112 50 53 23 294 268 271 279 303 218 268 284 281 261 220 264 267 293
194 195 193 193 190 180 187 210 205 190 186 215 223 206 203 208 182 215 235 209 229 218 218 244 240 252 200 177 162 259 316 266 279 295 308 300 287 278 271 265 245 252 276 292
196 195 198 193 188 181 197 207 185 205 204 204 213 216 208 214 203 175 204 227 209 203 229 222 252 262 250 221 189 242 209 273 278 294 280 267 271 267 264 260 260 269 279 285
197 194 194 195 192 184 196 205 204 207 214 178 210 212 218 218 204 202 204 205 230 233 234 294 327 234 333 286 265 265 275 261 249 269 266 295 284 260 249 256 264 260 286 309
199 198 196 195 195 196 191 202 197 224 208 211 199 211 216 211 222 224 218 219 216 209 167 124 201 251 255 256 250 249 237 234 254 257 278 245 242 306 337 302 294 295 331 356
200 200 198 197 198 201 202 197 205 217 223 214 219 211 207 219 193 221 204 196 239 174 162 196 231 225 247 241 240 232 227 247 247 242 236 265 275 271 265 266 284 46 28 11
198 199 198 199 200 202 206 199 191 232 227 216 223 209 206 203 211 186 197 173 152 149 170 193 216 216 214 180 140 329 37 244 203 211 246 240 79 136 64 332 266 93 51 358
202 203 203 202 202 204 207 209 199 208 227 238 214 220 214 207 200 211 200 167 184 193 204 217 216 224 243 207 204 167 171 197 221 230 256 266 272 125 154 215 70 122 335 315
201 204 204 203 204 203 205 212 203 207 218 235 222 245 234 232 200 190 184 190 209 188 212 207 194 243 234 238 240 175 185 194 188 215 234 257 233 155 221 76 61 302 293 258
201 201 201 200 200 201 202 210 211 210 211 249 226 225 241 228 251 272 187 200 174 197 204 210 199 218 232 226 246 235 219 223 209 209 219 146 181 322 332 303 300 300 238 194
204 202 201 201 201 201 204 201 209 197 208 245 245 233 243 244 253 260 240 227 230 219 230 237 237 242 236 231 234 248 226 238 260 261 263 252 233 260 257 267 276 227 197 205
205 203 204 208 213 212 208 205 207 202 189 230 252 228 236 242 244 250 254 251 237 231 221 235 230 237 236 253 270 254 258 214 234 257 264 277 273 276 295 223 195 194 195 209
206 205 205 207 206 202 201 208 209 209 193 190 215 226 218 232 229 218 232 239 228 228 221 228 249 250 256 251 310 251 252 244 249 247 259 254 288 283 252 196 207 204 206 199
207 206 204 202 198 193 192 206 217 213 207 222 283 234 203 213 208 209 209 225 239 239 245 221 213 230 247 228 232 240 245 246 243 247 244 282 283 231 214 216 203 195 190 185
203 202 198 196 194 193 188 199 214 207 195 189 198 240 199 204 207 214 221 226 234 247 242 232 252 225 217 257 256 256 255 227 246 250 254 248 233 239 225 206 190 183 178 183
201 199 196 196 193 199 201 196 196 193 186 174 187 130 183 173 185 198 202 219 220 235 236 237 244 251 220 252 252 243 242 249 252 253 252 253 251 231 210 194 182 178 183 182
195 192 188 187 190 198 206 202 198 191 186 177 178 175 188 175 157 163 159 186 214 235 239 229 233 226 228 232 244 246 242 240 245 252 253 246 228 227 208 198 191 189 189 185
187 179 181 183 198 194 185 187 194 200 190 191 210 219 169 172 161 137 139 188 220 228 229 236 240 247 250 257 265 260 253 255 255 254 248 239 221 208 205 204 202 196 191 183
178 184 187 173 173 166 178 184 192 162 160 197 205 197 141 182 168 151 196 193 193 243 204 216 238 248 233 241 242 249 257 258 256 252 248 232 221 215 206 200 197 192 187 183
179 172 164 142 167 195 176 190 169 203 180 172 195 182 159 163 168 163 179 200 204 236 139 213 248 251 245 250 256 263 263 260 252 241 240 222 217 217 209 196 188 185 181 179
151 172 165 168 173 178 192 168 195 178 190 185 190 163 147 153 191 152 180 208 215 155 216 239 249 258 258 265 269 271 273 255 248 235 228 225 213 205 193 185 180 176 174 177
185 162 149 212 171 180 190 192 189 182 165 177 172 153 160 178 189 162 203 210 179 221 239 246 243 251 264 271 271 257 258 240 220 206 196 190 184 179 179 178 177 174 179 186
178 178 191 207 195 176 192 186 180 178 182 163 162 164 133 176 153 198 206 191 218 225 243 249 249 258 267 271 251 244 236 211 193 184 181 181 177 177 178 181 176 185 188 181
230 195 177 187 193 168 168 171 174 176 170 166 165 157 175 179 177 182 199 214 225 237 235 249 260 249 244 235 228 220 207 191 183 177 178 183 182 178 178 169 179 182 183 183
196 194 180 161 170 169 169 171 166 171 164 170 177 183 186 163 205 208 208 223 237 246 252 255 246 235 212 206 216 201 189 178 177 172 170 171 170 166 165 171 176 177 180 184
Height
1476 1481 1487 1492 1497 1501 1507 1513 1516 1515 1522 1527 1523 1516 1517 1519 1517 1519 1523 1518 1511 1510 1515 1515 1506 1506 1514 1520 1517 1509 1510 1509 1513 1511 1514 1513 1512 1511 1516 1529 1528 1524 1539 1530
1471 1478 1483 1489 1495 1500 1507 1510 1510 1515 1519 1513 1516 1515 1515 1516 1515 1516 1519 1518 1516 1512 1509 1519 1514 1514 1523 1522 1519 1517 1519 1519 1525 1520 1520 1516 1513 1517 1518 1520 1530 1531 1536 1519
1466 1473 1479 1486 1492 1499 1506 1508 1510 1514 1514 1510 1507 1510 1513 1515 1518 1517 1514 1515 1518 1516 1514 1517 1517 1516 1522 1524 1524 1526 1525 1517 1522 1525 1519 1524 1522 1515 1514 1519 1535 1526 1519 1508
1461 1470 1475 1484 1489 1497 1502 1501 1499 1502 1506 1505 1502 1501 1506 1509 1513 1518 1516 1514 1515 1515 1524 1520 1520 1517 1517 1523 1526 1525 1525 1526 1521 1517 1517 1518 1518 1516 1514 1514 1513 1518 1509 1504
1458 1465 1475 1479 1486 1494 1498 1499 1499 1501 1494 1501 1501 1500 1499 1503 1504 1511 1515 1512 1512 1518 1519 1519 1520 1515 1514 1521 1526 1524 1525 1527 1526 1542 1525 1518 1515 1508 1506 1506 1505 1503 1502 1499
1455 1461 1470 1479 1485 1490 1493 1495 1496 1498 1495 1497 1500 1497 1498 1498 1502 1507 1508 1514 1516 1516 1517 1517 1520 1519 1521 1522 1525 1525 1528 1528 1531 1528 1516 1514 1520 1502 1498 1499 1496 1497 1501 1495
1451 1458 1465 1473 1481 1486 1492 1494 1497 1495 1495 1490 1491 1496 1500 1497 1499 1502 1503 1507 1510 1514 1517 1519 1523 1523 1524 1525 1525 1526 1524 1528 1529 1535 1522 1533 1500 1493 1493 1496 1496 1496 1498 1502
1448 1454 1462 1470 1477 1483 1488 1491 1494 1493 1492 1490 1490 1491 1493 1499 1499 1504 1506 1509 1512 1513 1517 1523 1524 1524 1524 1519 1520 1520 1521 1525 1532 1530 1518 1502 1492 1489 1491 1493 1497 1500 1503 1507
1444 1451 1458 1466 1472 1480 1487 1488 1492 1495 1492 1488 1490 1488 1491 1493 1496 1501 1504 1512 1512 1514 1517 1521 1524 1513 1507 1510 1517 1522 1524 1527 1533 1527 1523 1515 1489 1497 1499 1500 1502 1503 1508 1509
1439 1447 1455 1461 1469 1477 1481 1486 1491 1494 1494 1491 1492 1490 1489 1490 1493 1495 1501 1509 1513 1514 1515 1518 1514 1510 1502 1505 1504 1524 1528 1532 1527 1526 1525 1506 1491 1495 1501 1511 1506 1507 1509 1510
1433 1442 1449 1458 1466 1473 1478 1484 1489 1494 1493 1494 1494 1495 1493 1492 1492 1496 1499 1506 1507 1512 1512 1508 1511 1507 1500 1498 1492 1497 1508 1513 1521 1523 1518 1515 1492 1498 1504 1501 1504 1506 1508 1510
1429 1436 1445 1454 1462 1469 1477 1482 1486 1490 1493 1495 1495 1494 1494 1495 1496 1498 1497 1496 1496 1501 1503 1502 1503 1500 1496 1494 1497 1486 1494 1493 1500 1499 1498 1495 1496 1496 1500 1502 1503 1503 1505 1508
1425 1433 1441 1451 1458 1466 1472 1479 1483 1488 1491 1495 1494 1493 1495 1495 1496 1497 1499 1497 1497 1498 1497 1499 1498 1495 1490 1492 1491 1485 1485 1488 1491 1493 1490 1490 1492 1495 1498 1500 1501 1501 1503 1504
1422 1429 1437 1445 1454 1461 1469 1474 1480 1485 1490 1494 1490 1489 1491 1491 1494 1496 1497 1496 1497 1498 1499 1499 1497 1495 1494 1489 1488 1489 1487 1491 1491 1491 1491 1494 1492 1491 1492 1494 1496 1498 1499 1500
1418 1425 1433 1441 1450 1459 1467 1473 1476 1480 1487 1486 1487 1485 1488 1490 1492 1494 1495 1496 1496 1497 1498 1497 1497 1494 1497 1495 1497 1489 1487 1489 1491 1487 1489 1488 1487 1487 1489 1492 1493 1494 1496 1497
1414 1421 1429 1438 1448 1458 1466 1472 1472 1475 1480 1486 1484 1483 1485 1487 1489 1492 1494 1495 1495 1496 1496 1496 1497 1497 1498 1493 1489 1485 1488 1486 1483 1482 1484 1483 1483 1484 1486 1488 1489 1489 1491 1495
1410 1418 1427 1436 1445 1452 1456 1461 1463 1469 1475 1480 1485 1482 1482 1485 1488 1490 1492 1493 1495 1497 1496 1494 1494 1495 1495 1486 1477 1480 1478 1479 1478 1477 1479 1479 1479 1480 1482 1483 1484 1484 1489 1492
1406 1416 1425 1435 1444 1453 1456 1457 1460 1464 1472 1475 1478 1479 1482 1483 1484 1488 1490 1492 1495 1493 1492 1490 1490 1489 1488 1477 1469 1471 1474 1472 1469 1467 1469 1470 1473 1475 1477 1479 1480 1482 1485 1488
1404 1415 1426 1437 1441 1443 1444 1456 1460 1460 1467 1464 1468 1466 1472 1479 1481 1484 1488 1490 1491 1488 1484 1484 1484 1477 1462 1459 1463 1464 1461 1455 1457 1460 1461 1462 1465 1469 1473 1475 1476 1478 1482 1485
1403 1417 1421 1422 1426 1438 1447 1455 1456 1454 1454 1459 1457 1458 1465 1474 1476 1480 1487 1487 1485 1480 1475 1477 1468 1453 1456 1457 1457 1454 1448 1451 1453 1452 1451 1453 1456 1462 1466 1469 1473 1475 1478 1481
1397 1401 1407 1415 1426 1436 1439 1439 1443 1439 1445 1446 1446 1453 1460 1467 1470 1476 1479 1478 1476 1474 1465 1466 1450 1440 1444 1448 1438 1435 1440 1443 1443 1444 1445 1448 1454 1458 1460 1462 1467 1471 1475 1476
1383 1393 1404 1413 1420 1423 1422 1425 1427 1428 1424 1430 1434 1441 1453 1461 1466 1468 1474 1471 1470 1462 1459 1463 1444 1435 1435 1430 1431 1431 1432 1431 1431 1434 1438 1442 1447 1452 1455 1458 1462 1467 1470 1472
1381 1391 1391 1394 1402 1403 1402 1405 1412 1410 1415 1416 1425 1435 1445 1454 1457 1458 1462 1462 1459 1454 1457 1439 1427 1429 1427 1426 1425 1425 1424 1423 1423 1425 1430 1434 1439 1445 1449 1454 1458 1462 1465 1468
1367 1370 1377 1385 1377 1377 1380 1380 1391 1399 1406 1413 1421 1435 1440 1444 1448 1450 1450 1448 1445 1447 1433 1419 1421 1421 1421 1420 1419 1419 1418 1417 1418 1421 1425 1429 1434 1439 1445 1450 1453 1456 1459 1462
1360 1361 1360 1365 1360 1365 1370 1374 1385 1391 1400 1410 1422 1429 1433 1437 1441 1440 1438 1440 1433 1418 1411 1410 1410 1413 1413 1413 1414 1414 1414 1414 1415 1419 1422 1425 1429 1434 1439 1445 1450 1453 1457 1461
1352 1352 1348 1355 1356 1361 1366 1371 1379 1387 1396 1409 1417 1424 1424 1425 1424 1429 1428 1420 1410 1399 1400 1405 1406 1406 1408 1409 1410 1410 1411 1412 1415 1418 1420 1423 1427 1432 1437 1444 1447 1451 1456 1459
1345 1345 1346 1351 1358 1359 1363 1368 1376 1384 1392 1401 1406 1408 1408 1407 1408 1407 1401 1395 1389 1396 1399 1400 1402 1404 1405 1406 1406 1406 1408 1410 1414 1417 1420 1424 1428 1433 1437 1441 1445 1450 1454 1458